Regional Weather Roundup
Issued by NWS

Home | Current Version | Previous Version | Text Only | Print | Product List | Glossary On
Versions: 1 2 3 4 5 6 7 8 9 10 11 12 13 14 15 16 17 18 19 20 21 22 23 24 25 26 27 28 29 30 31 32 33 34 35 36 37 38 39 40 41 42 43 44 45 46 47 48 49 50
000
ASUS43 KTOP 211159
RWRKS

WEATHER ROUNDUP FOR KANSAS
NATIONAL WEATHER SERVICE GOODLAND KS
700 AM CDT TUE APR 21 2015

NOTE:  "FAIR" INDICATES FEW OR NO CLOUDS BELOW 12,000 FEET WITH NO
SIGNIFICANT WEATHER AND/OR OBSTRUCTIONS TO VISIBILITY.

KSZ001>006-013>018-027>032-041>047-211300-
NORTHWEST KANSAS

CITY           SKY/WX    TMP DP  RH WIND       PRES   REMARKS
GOODLAND       CLEAR     36  32  85 W8        29.91R
6HR MIN TEMP:  35; 6HR MAX TEMP:  42;

HAYS           CLEAR     43  28  56 N12       29.89R
HILL CITY      CLEAR     35  30  82 S5        29.90R
6HR MIN TEMP:  35; 6HR MAX TEMP:  42;

RUSSELL        PTCLDY    41  34  76 N8        29.88R
6HR MIN TEMP:  39; 6HR MAX TEMP:  44;

$$

KSZ061>065-074>080-084>089-211300-
SOUTHWEST KANSAS

CITY           SKY/WX    TMP DP  RH WIND       PRES   REMARKS
DODGE CITY     CLEAR     44  36  73 SW12      29.92R
6HR MIN TEMP:  44; 6HR MAX TEMP:  52; 6HR PCP: TRACE;

ELKHART          N/A     44  37  76 W8          N/A
GARDEN CITY    CLEAR     35  31  85 SW8       29.91S
6HR MIN TEMP:  35; 6HR MAX TEMP:  50; 6HR PCP: TRACE;

GREAT BEND     CLEAR     43  34  70 SW8       29.89R
LIBERAL        CLEAR     39  32  75 S7        29.95S
$$

KSZ066>073-081>083-090>101-211300-
SOUTHEAST KANSAS

CITY           SKY/WX    TMP DP  RH WIND       PRES   REMARKS
CHANUTE        PTCLDY    48  40  73 SW9       29.90S
6HR MIN TEMP:  45; 6HR MAX TEMP:  49; 6HR PCP: TRACE;

COFFEYVILLE    CLOUDY    47  42  83 S5        29.93R
6HR MIN TEMP:  46; 6HR MAX TEMP:  50;

HUTCHINSON     CLEAR     41  36  82 CALM      29.89S
6HR MIN TEMP:  39; 6HR MAX TEMP:  47;

MEDICINE LODGE   N/A     49  38  65 CALM      29.93R
NEWTON         CLEAR     45  34  65 SW7       29.90S
PARSONS        MOCLDY    47  41  80 CALM      29.93S
6HR MIN TEMP:  42; 6HR MAX TEMP:  47; 6HR PCP: TRACE;

WICHITA INTL   PTCLDY    43  38  82 SW7       29.89S
6HR MIN TEMP:  41; 6HR MAX TEMP:  49;

WICHITA JABRA  CLEAR     47  39  74 SW8       29.90R
6HR MIN TEMP:  46; 6HR MAX TEMP:  52;

WINFIELD       PTCLDY    48  40  73 SW9       29.93R
6HR MIN TEMP:  44; 6HR MAX TEMP:  50;

$$

KSZ007>012-019>026-033>040-048>060-102>105-211300-
NORTHEAST KANSAS

CITY           SKY/WX    TMP DP  RH WIND       PRES   REMARKS
CONCORDIA      PTCLDY    36  30  79 CALM      29.87S
6HR MIN TEMP:  35; 6HR MAX TEMP:  46;

EMPORIA        MOCLDY    45  38  76 NW7       29.89R
6HR MIN TEMP:  45; 6HR MAX TEMP:  51;

LAWRENCE       MOCLDY    41  34  76 CALM      29.88R
6HR MIN TEMP:  36; 6HR MAX TEMP:  45;

MANHATTAN      CLOUDY    37  35  92 SW3       29.88S
6HR MIN TEMP:  33; 6HR MAX TEMP:  42;

OLATHE IND     MOCLDY    42  35  76 SW5       29.89R
6HR MIN TEMP:  40; 6HR MAX TEMP:  48;

OLATHE EXE     CLOUDY    43  36  76 S3        29.87R
6HR MIN TEMP:  43; 6HR MAX TEMP:  49;

SALINA         PTCLDY    43  34  70 CALM      29.89S
6HR MIN TEMP:  39; 6HR MAX TEMP:  49;

TOPEKA BILLARD MOCLDY    43  34  70 CALM      29.88S
6HR MIN TEMP:  38; 6HR MAX TEMP:  46;

TOPEKA FORBES  MOCLDY    41  35  79 SW3       29.87S
6HR MIN TEMP:  41; 6HR MAX TEMP:  47;

$$


USA.gov is the U.S. government's official web portal to all federal, state and local government web resources and services.